| time (UTC) | temp F | wind direction | speed knots | gust knots | rain 1hr in | rain 24hr in | rain mn in | humidity % | barometer mb |
| 20260505030305 | 73 | 168 | 8.7 | 15.6 | 0.00 | 0.00 | 0.00 | 72 | 1008.8 |
| 20260505024305 | 74 | 167 | 6.1 | 13.9 | 0.00 | 0.00 | 0.00 | 70 | 1008.9 |
| 20260505023305 | 74 | 166 | 7.8 | 13.9 | 0.00 | 0.00 | 0.00 | 70 | 1008.9 |
| 20260505021305 | 74 | 161 | 6.1 | 10.4 | 0.00 | 0.00 | 0.00 | 68 | 1008.7 |
| 20260505020805 | 74 | 160 | 5.2 | 8.7 | 0.00 | 0.00 | 0.00 | 67 | 1008.7 |
| 20260505020305 | 75 | 162 | 5.2 | 13.9 | 0.00 | 0.00 | 0.00 | 67 | 1008.7 |
| 20260505013805 | 76 | 164 | 6.1 | 11.3 | 0.00 | 0.00 | 0.00 | 64 | 1008.6 |
| 20260505013305 | 76 | 169 | 8.7 | 14.8 | 0.00 | 0.00 | 0.00 | 64 | 1008.6 |
| 20260505011805 | 76 | 175 | 5.2 | 10.4 | 0.00 | 0.00 | 0.00 | 62 | 1008.6 |
| 20260505010805 | 77 | 171 | 5.2 | 13.9 | 0.00 | 0.00 | 0.00 | 61 | 1008.5 |
| 20260505010305 | 77 | 169 | 7.0 | 15.6 | 0.00 | 0.00 | 0.00 | 61 | 1008.5 |
| 20260505004805 | 77 | 170 | 7.8 | 13.0 | 0.00 | 0.00 | 0.00 | 60 | 1008.5 |
| 20260505004305 | 78 | 168 | 7.8 | 14.8 | 0.00 | 0.00 | 0.00 | 59 | 1008.6 |
| 20260505003805 | 78 | 176 | 8.7 | 18.2 | 0.00 | 0.00 | 0.00 | 59 | 1008.5 |
| 20260505003305 | 78 | 170 | 10.4 | 24.3 | 0.00 | 0.00 | 0.00 | 59 | 1008.5 |
| 20260505001805 | 78 | 182 | 7.8 | 18.2 | 0.00 | 0.00 | 0.00 | 58 | 1008.4 |
| 20260505001305 | 78 | 164 | 8.7 | 15.6 | 0.00 | 0.00 | 0.00 | 58 | 1008.4 |
| 20260505000305 | 78 | 180 | 7.8 | 20.9 | 0.00 | 0.00 | 0.00 | 58 | 1008.2 |
| 20260504234805 | 79 | 174 | 11.3 | 17.4 | 0.00 | 0.00 | 0.00 | 56 | 1008.4 |
| 20260504234305 | 79 | 171 | 10.4 | 17.4 | 0.00 | 0.00 | 0.00 | 56 | 1008.5 |
| 20260504233805 | 80 | 169 | 10.4 | 17.4 | 0.00 | 0.00 | 0.00 | 56 | 1008.5 |
| 20260504233305 | 80 | 176 | 8.7 | 20.0 | 0.00 | 0.00 | 0.00 | 56 | 1008.6 |
| 20260504231305 | 80 | 173 | 13.0 | 21.7 | 0.00 | 0.00 | 0.00 | 56 | 1008.7 |
| 20260504230305 | 80 | 162 | 10.4 | 20.0 | 0.00 | 0.00 | 0.00 | 55 | 1008.8 |
| 20260504224805 | 80 | 177 | 9.6 | 18.2 | 0.00 | 0.00 | 0.00 | 55 | 1009.0 |
| 20260504223805 | 81 | 175 | 10.4 | 20.0 | 0.00 | 0.00 | 0.00 | 54 | 1009.0 |
| 20260504223305 | 81 | 198 | 9.6 | 20.0 | 0.00 | 0.00 | 0.00 | 54 | 1009.1 |
| 20260504221805 | 81 | 177 | 12.2 | 20.0 | 0.00 | 0.00 | 0.00 | 53 | 1009.2 |
| 20260504221305 | 81 | 174 | 13.9 | 20.9 | 0.00 | 0.00 | 0.00 | 53 | 1009.2 |
| 20260504220805 | 81 | 168 | 8.7 | 13.9 | 0.00 | 0.00 | 0.00 | 52 | 1009.3 |
| 20260504214806 | 82 | 181 | 9.6 | 21.7 | 0.00 | 0.00 | 0.00 | 52 | 1009.4 |
| 20260504214305 | 82 | 171 | 10.4 | 18.2 | 0.00 | 0.00 | 0.00 | 53 | 1009.3 |
| 20260504213805 | 82 | 168 | 14.8 | 22.6 | 0.00 | 0.00 | 0.00 | 51 | 1009.3 |
| 20260504213305 | 82 | 155 | 13.0 | 24.3 | 0.00 | 0.00 | 0.00 | 52 | 1009.4 |
| 20260504211805 | 82 | 174 | 7.8 | 15.6 | 0.00 | 0.00 | 0.00 | 52 | 1009.7 |
| 20260504211305 | 82 | 169 | 12.2 | 22.6 | 0.00 | 0.00 | 0.00 | 51 | 1009.7 |
| 20260504210805 | 82 | 172 | 14.8 | 24.3 | 0.00 | 0.00 | 0.00 | 52 | 1009.9 |
| 20260504210305 | 81 | 164 | 14.8 | 22.6 | 0.00 | 0.00 | 0.00 | 52 | 1009.9 |
| 20260504204305 | 81 | 174 | 8.7 | 17.4 | 0.00 | 0.00 | 0.00 | 53 | 1010.5 |
| 20260504203805 | 81 | 167 | 10.4 | 14.8 | 0.00 | 0.00 | 0.00 | 52 | 1010.5 |
| 20260504201805 | 81 | 176 | 10.4 | 21.7 | 0.00 | 0.00 | 0.00 | 53 | 1010.9 |
| 20260504201305 | 81 | 175 | 7.8 | 15.6 | 0.00 | 0.00 | 0.00 | 53 | 1011.0 |
| 20260504200805 | 81 | 173 | 9.6 | 18.2 | 0.00 | 0.00 | 0.00 | 52 | 1011.2 |
| 20260504200305 | 81 | 170 | 10.4 | 20.0 | 0.00 | 0.00 | 0.00 | 54 | 1011.2 |
| 20260504194805 | 80 | 162 | 10.4 | 20.9 | 0.00 | 0.00 | 0.00 | 53 | 1011.5 |
| 20260504194305 | 81 | 175 | 8.7 | 17.4 | 0.00 | 0.00 | 0.00 | 53 | 1011.5 |
| 20260504193805 | 80 | 176 | 6.1 | 13.0 | 0.00 | 0.00 | 0.00 | 53 | 1011.6 |
| 20260504193305 | 80 | 174 | 10.4 | 20.0 | 0.00 | 0.00 | 0.00 | 54 | 1011.7 |
| 20260504191805 | 80 | 173 | 10.4 | 17.4 | 0.00 | 0.00 | 0.00 | 54 | 1011.9 |
| 20260504191305 | 79 | 173 | 8.7 | 18.2 | 0.00 | 0.00 | 0.00 | 55 | 1011.8 |
| 20260504190805 | 79 | 164 | 10.4 | 21.7 | 0.00 | 0.00 | 0.00 | 56 | 1012.1 |
| 20260504190305 | 79 | 160 | 12.2 | 21.7 | 0.00 | 0.00 | 0.00 | 56 | 1012.2 |
| 20260504184306 | 79 | 173 | 9.6 | 14.8 | 0.00 | 0.00 | 0.00 | 56 | 1012.5 |
| 20260504183305 | 79 | 173 | 11.3 | 17.4 | 0.00 | 0.00 | 0.00 | 55 | 1012.6 |
| 20260504181805 | 78 | 180 | 7.8 | 13.0 | 0.00 | 0.00 | 0.00 | 59 | 1013.0 |
| 20260504181305 | 77 | 154 | 10.4 | 17.4 | 0.00 | 0.00 | 0.00 | 58 | 1013.1 |
| 20260504180805 | 77 | 166 | 10.4 | 21.7 | 0.00 | 0.00 | 0.00 | 58 | 1013.1 |
| 20260504180305 | 76 | 178 | 10.4 | 18.2 | 0.00 | 0.00 | 0.00 | 59 | 1013.1 |
| 20260504174805 | 75 | 161 | 7.8 | 14.8 | 0.00 | 0.00 | 0.00 | 61 | 1013.1 |
| 20260504174305 | 76 | 165 | 11.3 | 15.6 | 0.00 | 0.00 | 0.00 | 61 | 1013.3 |
| 20260504173805 | 76 | 174 | 10.4 | 17.4 | 0.00 | 0.00 | 0.00 | 61 | 1013.3 |
| 20260504171805 | 73 | 178 | 8.7 | 17.4 | 0.00 | 0.00 | 0.00 | 64 | 1014.1 |
| 20260504171305 | 73 | 170 | 9.6 | 14.8 | 0.00 | 0.00 | 0.00 | 64 | 1014.1 |
| 20260504170805 | 73 | 182 | 7.8 | 15.6 | 0.00 | 0.00 | 0.00 | 65 | 1014.2 |
| 20260504170305 | 73 | 189 | 7.8 | 18.2 | 0.00 | 0.00 | 0.00 | 66 | 1014.3 |
| 20260504150304 | 70 | 178 | 11.3 | 17.4 | 0.00 | 0.00 | 0.00 | 67 | 1014.9 |
| 20260504141304 | 68 | 162 | 4.3 | 14.8 | 0.00 | 0.00 | 0.00 | 70 | 1014.8 |
| 20260504140805 | 59 | 0 | 0.0 | 0.0 | 0.00 | 0.00 | 0.00 | 79 | 1014.8 |
| 20260504140305 | 59 | 0 | 0.0 | 0.0 | 0.00 | 0.00 | 0.00 | 79 | 1014.9 |
| 20260504130305 | 59 | 0 | 0.0 | 0.0 | 0.00 | 0.00 | 0.00 | 79 | 1015.1 |
| 20260504120305 | 59 | 0 | 0.0 | 0.0 | 0.00 | 0.00 | 0.00 | 79 | 1014.6 |
| 20260504110305 | 59 | 160 | 5.2 | 8.7 | 0.00 | 0.00 | 0.00 | 78 | 1014.6 |
| 20260504081805 | 62 | 168 | 6.1 | 12.2 | 0.00 | 0.00 | 0.00 | 72 | 1015.4 |
| 20260504081305 | 62 | 161 | 7.0 | 12.2 | 0.00 | 0.00 | 0.00 | 72 | 1015.4 |
| 20260504080805 | 62 | 158 | 7.8 | 12.2 | 0.00 | 0.00 | 0.00 | 72 | 1015.5 |
| 20260504080305 | 62 | 169 | 7.0 | 12.2 | 0.00 | 0.00 | 0.00 | 71 | 1015.7 |
| 20260504070305 | 63 | 169 | 7.8 | 14.8 | 0.00 | 0.00 | 0.00 | 68 | 1016.6 |
| 20260504050305 | 65 | 167 | 10.4 | 20.9 | 0.00 | 0.00 | 0.00 | 58 | 1017.6 |
| 20260504044805 | 66 | 161 | 10.4 | 17.4 | 0.00 | 0.00 | 0.00 | 57 | 1017.5 |
| 20260504044305 | 66 | 163 | 10.4 | 17.4 | 0.00 | 0.00 | 0.00 | 56 | 1017.6 |
| 20260504043805 | 66 | 163 | 9.6 | 14.8 | 0.00 | 0.00 | 0.00 | 55 | 1017.6 |
| 20260504043305 | 66 | 164 | 10.4 | 13.9 | 0.00 | 0.00 | 0.00 | 54 | 1017.7 |
| 20260504041805 | 67 | 169 | 8.7 | 13.0 | 0.00 | 0.00 | 0.00 | 53 | 1017.7 |
| 20260504041304 | 67 | 164 | 8.7 | 13.9 | 0.00 | 0.00 | 0.00 | 52 | 1017.7 |
| 20260504040804 | 67 | 158 | 10.4 | 17.4 | 0.00 | 0.00 | 0.00 | 52 | 1017.7 |
| 20260504040305 | 67 | 165 | 8.7 | 17.4 | 0.00 | 0.00 | 0.00 | 51 | 1017.7 |
| 20260504034805 | 68 | 165 | 7.8 | 13.9 | 0.00 | 0.00 | 0.00 | 49 | 1017.7 |
| 20260504034305 | 67 | 170 | 7.8 | 12.2 | 0.00 | 0.00 | 0.00 | 49 | 1017.6 |
| 20260504033805 | 67 | 169 | 7.0 | 11.3 | 0.00 | 0.00 | 0.00 | 49 | 1017.6 |
| 20260504033304 | 67 | 158 | 8.7 | 13.0 | 0.00 | 0.00 | 0.00 | 49 | 1017.7 |
| 20260504031805 | 67 | 161 | 7.8 | 12.2 | 0.00 | 0.00 | 0.00 | 50 | 1017.7 |
| 20260504031304 | 67 | 163 | 6.1 | 8.7 | 0.00 | 0.00 | 0.00 | 50 | 1017.6 |
| 20260504030805 | 67 | 159 | 6.1 | 8.7 | 0.00 | 0.00 | 0.00 | 50 | 1017.7 |